Location: Geroldsau
(48.7259°N, 8.2466°E)
Time: 10:08:37
(UTC+00:00)

UNK - Pass Details

Date: 20 June 2021
Orbit: 667 x 686 km, 98.2° (Epoch: 27 July)

Event Time Altitude Azimuth Distance (km) Brightness Sun altitude
Exits shadow 00:54:20 14° 154° (SSE) 1,841 5.6 -15.3°
Maximum altitude 00:58:14 68° 73° (ENE) 729 4.0 -15.1°
Drops below altitude 10° 01:02:51 10° 351° (N) 2,128 7.2 -14.8°
Sets 01:05:07 0° 349° (NNW) 3,050 8.1 -14.7°
